Regional Weather Roundup
Issued by NWS

Home | Current Version | Previous Version | Graphics & Text | Print | Product List | Glossary On
Versions: 1 2 3 4 5 6 7 8 9 10 11 12 13 14 15 16 17 18 19 20 21 22 23 24 25 26 27 28 29 30 31 32 33 34 35 36 37 38 39 40 41 42 43 44 45 46 47 48 49 50
000
ASUS43 KOAX 292002
RWRNE

WEATHER ROUNDUP FOR NEBRASKA
NATIONAL WEATHER SERVICE OMAHA NE
300 PM CDT FRI MAY 29 2015

NOTES: SATELLITE DATA IS BEING USED TO AUGMENT CLOUD COVER ABOVE
       12000 FEET.
       "FAIR" INDICATES FEW OR NO CLOUDS BELOW 12,000 FEET WITH NO
       SIGNIFICANT WEATHER AND/OR OBSTRUCTIONS TO VISIBILITY.

  * THESE STATIONS DO NOT REPORT WEATHER SUCH AS RAIN...SNOW OR FOG.

NEZ001>004-019>022-054>056-292100-
NEBRASKA PANHANDLE

CITY           SKY/WX    TMP DP  RH WIND       PRES   REMARKS
SCOTTSBLUFF    LGT RAIN  51  49  92 N16       30.24R FOG
ALLIANCE       LGT RAIN  48  46  93 N15G24    30.22R
CHADRON        LGT RAIN  48  45  89 NE16      30.27R FOG
KIMBALL          N/A    N/A N/A N/A MISG        N/A
SIDNEY         PTSUNNY   56  48  74 N17       30.18R
$$

NEZ057>060-069>072-079>082-292100-
SOUTHWEST NEBRASKA

CITY           SKY/WX    TMP DP  RH WIND       PRES   REMARKS
NORTH PLATTE   RAIN      59  55  87 N25G31    30.08R
IMPERIAL       MOSUNNY   70  53  54 N17G25    30.08S
LEXINGTON      MOSUNNY   71  57  61 N22       30.02F
MCCOOK         MOSUNNY   76  54  46 N10       30.02F
$$

NEZ005>010-023>029-035>040-094-292100-
NORTH CENTRAL NEBRASKA

CITY           SKY/WX    TMP DP  RH WIND       PRES   REMARKS
VALENTINE      LGT RAIN  50  48  93 N18G30    30.16R FOG
AINSWORTH      LGT RAIN  53  52  97 N22G29    30.13R
BROKEN BOW     CLOUDY    66  55  67 N30G38    30.05R
ORD            CLOUDY    63  56  78 N20G28    30.03R
$$

NEZ041-046>049-061>064-073>077-083>087-292100-
SOUTH CENTRAL NEBRASKA

CITY           SKY/WX    TMP DP  RH WIND       PRES   REMARKS
GRAND ISLAND   CLOUDY    73  58  59 N16       29.98S
HASTINGS       PTSUNNY   76  58  53 N13       29.98S
KEARNEY *      PTSUNNY   73  55  53 N13G22    30.00R
$$

NEZ011>018-030>034-042>045-292100-
NORTHEAST NEBRASKA

CITY           SKY/WX    TMP DP  RH WIND       PRES   REMARKS
NORFOLK        CLOUDY    75  61  61 W18       29.92F
BLAIR          CLOUDY    75  61  60 S14       29.92S
COLUMBUS *     CLOUDY    77  57  50 W8        29.94S
FREMONT        CLOUDY    78  61  55 SW10      29.92S
TEKAMAH        CLOUDY    78  62  57 SW9       29.89F
$$

NEZ050>053-065>068-078-088>093-292100-
SOUTHEAST NEBRASKA

CITY           SKY/WX    TMP DP  RH WIND       PRES   REMARKS
LINCOLN        CLOUDY    78  60  53 SW10      29.93F
OMAHA EPPLEY   CLOUDY    76  59  55 SW12      29.91S
FALLS CITY     CLOUDY    71  65  81 S10       29.95F
PLATTSMOUTH    CLOUDY    74  61  63 SW10      29.93S
$$

NEZ044-045-051>053-067-292100-
OMAHA AREA

CITY           SKY/WX    TMP DP  RH WIND       PRES   REMARKS
OMAHA EPPLEY   CLOUDY    76  59  55 SW12      29.91S
BLAIR          CLOUDY    75  61  60 S14       29.92S
FREMONT        CLOUDY    78  61  55 SW10      29.92S
OFFUTT AFB     CLOUDY    75  61  61 S10       29.91S
PLATTSMOUTH    CLOUDY    74  61  63 SW10      29.93S
$$


USA.gov is the U.S. government's official web portal to all federal, state and local government web resources and services.